CYFB

Iqaluit

Airport
ICAO code
CYFB
Summary
ICAO Region
NAM
ICAO Territory
Location

Iqaluit, Nunavut,

Coordinates
63° 45' 16" N , 68° 33' 1" W
KCC
Airport CFIT
Altimeter Temperature Error Correction
Airport WX
Low Level Turbulence
Metar
CYFB 251722Z 33025G35KT 30SM -SHRA BKN023 BKN038 BKN120 08/03 A2955 RMK SC6SC1AC1 AC TR CVCTV CLD EMBD SLP010

Description

Airport serving Iqaluit, Nunavut.

Climatology

Tundra climate (Köppen climate classification ET) - warmest month has an average temperature of 0 - 10 degrees C.

Runways

Designator Length Width Surface Rops
17/35 2623 61 ASP Yes/Yes

Airport map

Aerial View

SKYbrary Partners:

Safety knowledge contributed by: